Location: Newark
(52.4787°S, 179.0532°W)
Time: 21:53:57
(UTC+00:00)

Transit 2A Rocket - Pass Details

Date: 21 November 2019
Orbit: 594 x 909 km, 66.7° (Epoch: 05 December)

Event Time Altitude Azimuth Distance (km) Brightness Sun altitude
Rises 00:25:57 0° 262° (W) 3,469 8.5 56.2°
Reaches altitude 10° 00:28:55 10° 248° (WSW) 2,570 7.8 56.1°
Maximum altitude 00:33:43 24° 195° (SSW) 1,806 6.9 55.8°
Drops below altitude 10° 00:38:38 10° 142° (SE) 2,628 7.5 55.5°
Sets 00:41:43 0° 128° (SE) 3,565 8.1 55.3°
